COSMOS 2251 DEB, 40239

Orbit data source: Space-Track

COSMOS 2251 DEB, 40239 is space debris in LEO originally from a launch on Wed, 16 Jun 1993 UTC launched from the Plesetsk Missile And Space Complex (PKMTR). The debris from Iridium 33, an American commercial communications satellite, has been tracked extensively since its accidental collision with the defunct Russian satellite Cosmos 2251 in 2009. This event, occurring at high speed in low Earth orbit (LEO), generated thousands of pieces of space debris, significantly increasing the risk of further collisions. The Iridium 33 debris cloud has impacted space traffic management and orbital debris mitigation strategies, making it a subject of ongoing study in space situational awareness.

Loading next visibility...
Identifier
40239, 1993-036BVU
Orbit
LEO
Country
Flag of CISCIS
Related business
Manufacturer
Unknown
Mission
Spacecraft
Bus & Motor
Unknown
Mass
Unknown
Launch date (UTC)
1993-06-16 (33 years ago)
Launch vehicle
Unknown
Launch site
Plesetsk Missile And Space Complex (PKMTR)
Object type
Payload
Rocket body
Debris
Shape & HBR
Unknown shape, 0.1 m
Radar Cross Section
Small (<0.1 m²)

Expand to show TLE details & history
Last TLE update: 6 days ago

TLE from 6 days ago
0 COSMOS 2251 DEB
1 40239U 93036BVU 26118.98952221  .00001632  00000-0  31181-3 0  9994
2 40239  74.0313  12.8531 0084090  90.8766 285.7942 14.62527250616177
Epoch: 2026-04-28T23:44Z
TLE epoch observation values (Epoch: 2026-04-28T23:44:54.718Z)
Latitude
15.10031°
Longitude
164.07256°
Altitude
671.258 km
Speed
7.531 km/s
True Right ascension
01h 09m 01s
True Declination
15° 00' 47"
Sunlit
Object was in daylight at epoch
Visualization orbit readout
Latitude
Unknown
Longitude
Unknown
Altitude
Unknown
Speed
Unknown
Apparent Right ascension
Unknown
Apparent Declination
Unknown
Sunlit
N/A
Visualization observer readout
Local Sidereal Time
19:51:52
Azimuth
Unknown
Elevation
Unknown
Doppler factor
Unknown
Orbital elements
Apogee altitude
741.994 km
Perigee altitude
623.246 km
Semi-major axis
7,060.757 km
Eccentricity
0.00841
Inclination
74.0313°
RAAN
12.8531°
Arg. of periapsis
90.8766°
True anomaly
284.86436°
Mean anomaly
285.7942°
Eccentric anomaly
285.32954°
Mean motion
3.65819 °/min
Orbital period
98.41 mins
BSTAR
0.00031181
Loading maneuver chart data...
Computing Atmospheric mass density...

Documentation

Showing up to 5 results
|